Regional Weather Roundup
Issued by NWS Northern Indiana

Home | Current Version | Previous Version | Text Only | Print | Product List | Glossary On
Versions: 1 2 3 4 5 6 7 8 9 10 11 12 13 14 15 16 17 18 19 20 21 22 23 24 25 26 27 28 29 30 31 32 33 34 35 36 37 38 39 40 41 42 43 44 45 46 47 48 49 50
000
ASUS43 KIWX 200710
RWRIWX

KIWX WEATHER ROUNDUP
NATIONAL WEATHER SERVICE NORTHERN INDIANA
200 AM EST MON FEB 20 2017

NOTE: "FAIR" INDICATES FEW OR NO CLOUDS BELOW 12,000 FEET WITH NO
SIGNIFICANT WEATHER AND/OR OBSTRUCTIONS TO VISIBILITY.

* THESE STATIONS ARE NOT UNDER NWS QUALITY CONTROL. THEY ALSO MAY NOT
  REPORT WEATHER SUCH AS PRECIPITATION OR FOG.

INZ001>027-200800-
NORTHERN INDIANA

CITY           SKY/WX    TMP DP  RH WIND       PRES   REMARKS
GARY*          PTCLDY    42  40  90 S5        30.14S
VALPARAISO     CLOUDY    44  33  65 E3        30.15R
MICHIGAN CITY* CLOUDY    41  30  65 CALM      30.15R
LAPORTE*       CLOUDY    39  29  67 E3        30.15S
KNOX*          CLOUDY    39  21  48 SE3       30.15S
SOUTH BEND     CLOUDY    36  26  67 E3        30.16S
GOSHEN         CLOUDY    36  30  79 SE3       30.15F
MONTICELLO*    CLOUDY    42  40  93 CALM      30.14S
LOGANSPORT*    CLEAR     41  39  93 E3        30.16S
ROCHESTER*     CLOUDY    37  36  93 CALM      30.16R
WARSAW*        CLOUDY    34  32  93 CALM      30.16S
ANGOLA*        CLEAR     36  34  93 CALM      30.16S
FORT WAYNE     MOCLDY    36  31  82 E3        30.16F
HUNTINGTON*    PTCLDY    38  36  92 CALM      30.17S
PERU/GRISSOM   CLEAR     41  41 100 SE5       30.14S FOG
MARION*        CLEAR     38  37  96 CALM      30.17S FOG

$$
INZ028>050-200800-
CENTRAL INDIANA

CITY           SKY/WX    TMP DP  RH WIND       PRES   REMARKS
LAFAYETTE      PTCLDY    42  42 100 E3        30.14S FOG
KOKOMO*        CLEAR     42  41  96 CALM      30.17R FOG
MUNCIE*        CLEAR     45  42  89 CALM      30.16F FOG
INDIANAPOLIS   CLOUDY    46  44  93 SE5       30.15F FOG

$$
MIZ043>046-050>051-056>058-064>065-071>073-077>080-200800-
SOUTHWEST LOWER MICHIGAN

CITY           SKY/WX    TMP DP  RH WIND       PRES   REMARKS
BATTLE CREEK   CLOUDY    37  29  72 CALM      30.17R
BENTON HARBOR  PTCLDY    35  28  75 CALM      30.15S
COLDWATER*     CLOUDY    34  32  91 CALM      30.17R
HILLSDALE*     CLOUDY    36  28  75 CALM      30.16S
HOLLAND        CLOUDY    35  30  82 CALM      30.16S
GRAND RAPIDS   CLOUDY    33  27  78 E3        30.16S
KALAMAZOO      CLOUDY    36  25  64 CALM      30.17R
STURGIS*       PTCLDY    36  28  74 CALM      30.16S
THREE RIVERS*  FAIR      35  30  83 CALM      30.17S

$$
OHZ001>008-015>018-024>025-200800-
NORTHWEST OHIO

CITY           SKY/WX    TMP DP  RH WIND       PRES   REMARKS
WAUSEON*       FAIR      43  32  65 NE6       30.17S
DEFIANCE       PTCLDY    35  31  85 CALM      30.17S
FINDLAY        CLOUDY    41  32  70 S3        30.16S
TOLEDO EXPRESS MOCLDY    39  34  82 E5        30.17S
TOLEDO METCALF CLOUDY    40  35  83 N6        30.19R
LIMA           CLOUDY    44  42  93 S5        30.17R

$$
AND FOR LAKE MICHIGAN COASTAL AND OPEN LAKE BUOY OBSERVATIONS

STATION/POSITION TEMP    WIND        PRES    VSBY  WAVE
                 AIR SEA DIR/SP/G                  HT/PER
                 (F)     (DEG/KT/KT) (MB)    (MI)  (FT/S)
CALUMET HARBOR    47     200/  4/  6 1019.8R
MICHIGAN CITY     50     110/  6/  6   N/A
BURNS HARBOR      54     140/  6/ 10 1021.0S

$$
&&




USA.gov is the U.S. government's official web portal to all federal, state and local government web resources and services.